GFSGL_con_mlcape_057.txt.gz
CAPE
0 0 0 0 0 0 0 45 376 685 760 821 697 723 762 1272 1810 1735 1389 1159 931 751 622 509 424 420 430 301 265 230 211 103 131 7 0 5 2 22 55 87 71 180 76
0 0 0 0 0 0 0 0 400 593 758 754 799 959 1258 1876 1911 1631 1154 863 631 592 688 755 608 394 458 304 222 215 184 50 79 159 1 3 3 25 11 26 67 115 189
0 0 0 0 0 1 0 0 341 612 757 859 1047 1247 1720 1947 1687 1335 1191 936 810 957 833 699 694 434 392 214 210 323 246 23 9 92 6 3 0 3 2 6 24 23 3
0 1 0 0 8 62 44 107 370 645 834 1036 1241 1713 1914 1743 1500 1269 991 862 832 558 497 698 586 399 419 247 243 205 39 8 11 91 31 3 2 1 2 0 0 3 1
0 10 49 45 255 202 161 267 601 925 1030 1320 1667 1864 1790 1543 1332 1121 883 574 350 452 437 373 391 385 282 293 223 125 10 5 14 104 26 3 1 2 1 1 1 2 1
2 1 266 480 387 345 361 559 748 1130 1425 1688 1777 1807 1665 1356 787 671 435 317 405 282 224 201 272 0 0 0 0 0 0 1 105 98 54 2 1 2 0 1 1 2 3
13 40 351 930 583 527 524 589 948 1280 1694 1807 1779 1691 1506 1037 497 317 167 289 257 269 241 150 94 64 4 7 0 0 0 7 60 133 39 10 7 0 3 5 4 3 9
27 54 893 1001 728 749 786 1073 1433 1746 1827 1707 1453 1125 720 228 117 72 2 306 306 217 181 193 117 67 38 32 6 0 1 19 14 40 169 13 3 8 0 0 5 0 1
97 41 934 774 699 1028 1376 1478 1391 1438 1251 947 727 506 189 1 0 0 75 123 39 11 7 17 56 20 7 3 0 2 8 2 0 0 11 1 0 0 0 4 4 10 5
65 47 913 905 1075 1396 1174 1020 930 934 588 336 171 88 6 0 0 0 2 0 0 0 0 0 0 28 0 0 1 0 1 1 0 0 0 0 0 0 0 16 9 11 8
86 177 808 811 1015 845 741 621 440 260 58 6 0 0 0 0 0 0 0 0 0 0 4 14 0 0 0 0 0 1 5 3 0 3 2 4 5 1 1 0 16 21 7
42 481 721 573 475 398 333 138 43 5 4 0 0 0 0 0 0 0 0 0 0 5 9 0 1 0 0 0 0 4 0 2 3 2 3 1 1 2 3 0 0 9 25
305 408 406 350 232 159 112 22 0 0 0 0 0 0 1 2 0 0 0 0 0 1 0 0 0 0 0 0 0 0 0 0 2 3 0 0 1 1 2 1 2 0 0
453 257 235 148 57 17 12 20 0 0 0 0 1 0 3 1 1 0 0 0 0 0 0 0 0 0 0 0 0 0 2 2 0 0 0 2 4 5 11 7 9 1 2
156 126 111 50 15 13 15 10 13 9 0 0 0 0 0 0 1 0 0 1 0 0 0 1 1 0 0 2 3 1 1 1 3 6 3 3 6 9 7 4 3 3 27
33 68 7 1 1 0 0 0 0 0 0 0 0 0 0 0 0 0 0 0 0 0 3 1 0 0 0 1 0 0 1 1 3 3 5 8 11 5 6 3 1 0 0
65 5 0 0 0 1 2 4 0 0 0 0 0 0 0 0 0 0 0 0 0 1 5 4 1 2 3 1 1 1 5 5 3 3 3 1 3 5 1 1 1 8 2
3 0 0 6 9 8 10 4 3 0 1 0 0 0 0 0 0 0 0 0 1 4 4 0 7 6 5 8 3 4 5 3 2 3 4 2 3 2 3 0 1 2 2
1 6 7 17 18 6 9 12 2 3 0 0 0 0 0 0 0 0 0 1 6 0 0 0 34 13 2 2 1 0 2 1 2 3 3 3 3 3 1 3 2 0 0
21 5 8 5 18 15 10 2 2 2 2 0 0 0 0 0 0 1 1 0 0 1 2 0 0 0 0 11 4 0 0 0 0 2 2 2 1 4 1 0 1 0 0
10 17 20 70 40 10 0 1 2 3 2 0 0 2 1 2 2 1 1 2 0 3 6 4 0 7 30 22 14 5 5 6 0 4 4 3 9 0 0 0 0 0 1
11 5 4 2 7 4 4 3 3 1 1 1 1 0 0 0 0 0 0 0 0 1 1 0 0 0 0 0 7 5 3 7 3 10 0 0 0 0 0 11 0 2 77
20 1 2 4 2 1 3 3 2 2 2 2 1 0 1 3 2 1 1 2 0 0 0 0 0 0 0 1 1 0 15 32 17 4 48 66 63 58 54 58 57 62 36
45 4 1 3 3 3 3 3 2 2 4 1 0 0 5 8 7 6 2 2 0 1 0 0 0 0 0 0 0 0 0 1 3 3 14 7 1 2 1 0 0 0 0
4 1 3 3 2 1 2 2 2 2 1 1 0 2 7 6 5 3 1 0 0 0 2 0 0 0 0 0 0 0 0 0 0 0 0 0 0 0 0 0 0 0 0
1 2 2 4 2 2 3 1 1 1 0 1 4 6 6 4 1 0 0 0 0 0 0 0 0 0 0 0 0 0 0 0 0 0 0 0 0 0 0 0 0 0 0

GFSGL_con_mlcape_060.txt.gz
CAPE
0 0 0 0 0 0 0 255 653 1318 1326 1241 1439 2008 2159 2020 1921 2116 2222 2467 2536 2221 1732 1626 1557 1258 1024 802 677 482 699 453 225 367 317 113 97 73 91 146 403 156 139
0 0 0 0 0 0 0 176 554 743 1373 1530 1729 1810 1732 1662 2171 2383 2572 2328 2121 1809 1548 1329 1262 1035 1142 787 665 646 476 378 301 404 109 43 45 98 22 180 202 242 209
0 0 0 0 0 0 0 216 637 645 1198 1567 1682 1744 1639 1663 2279 2514 2434 1981 1719 1528 1369 1221 1135 1087 1003 817 791 515 447 419 420 308 180 29 6 102 1 35 76 121 145
0 0 5 12 87 14 17 245 713 690 1064 1578 1690 1709 1598 1914 2251 2445 2253 1911 1594 1356 1189 1158 1093 1005 972 853 689 482 402 384 238 140 196 33 8 2 7 2 34 19 16
0 2 29 50 162 251 126 377 800 734 916 1411 1697 1720 1834 2101 2206 2284 2021 1873 1434 1492 1314 1233 1097 892 757 649 504 505 431 365 115 239 81 76 2 0 6 2 58 29 25
65 61 58 65 133 285 403 699 905 847 1025 1358 1673 1767 2130 2024 1798 1887 1801 1647 1445 1267 914 854 722 542 407 268 98 178 488 389 210 26 120 86 3 3 3 10 14 7 5
144 131 159 127 177 286 614 882 961 1128 1482 1664 1930 2028 2207 1956 1397 1247 1212 1062 772 670 632 609 561 480 431 426 0 0 0 0 5 260 250 141 26 3 29 17 1 31 41
137 221 189 165 194 463 863 1033 1209 1543 2036 2286 2230 2233 2171 1355 854 675 406 664 598 658 723 705 655 496 480 415 98 27 17 0 8 160 338 231 96 36 18 71 29 26 55
107 197 176 247 418 959 1171 1290 1388 1855 2140 2136 2224 2160 2145 503 288 185 167 538 542 649 541 448 422 441 126 34 152 50 11 4 0 4 41 29 1 0 20 12 17 13 16
79 121 257 339 301 1100 1104 1026 1437 1825 2053 2041 1922 1715 798 396 22 8 255 195 481 330 217 170 0 199 0 0 45 7 25 30 81 21 4 1 1 0 0 0 26 28 29
40 99 254 331 448 944 861 1252 1727 1618 1558 1323 1076 465 157 59 0 13 93 263 201 90 43 41 2 0 0 0 30 9 0 73 24 172 56 49 50 14 10 61 89 33 11
2 58 245 117 732 964 1237 1242 1097 1093 855 515 432 153 61 44 0 0 0 17 8 36 21 47 0 0 0 0 1 0 0 22 22 2 2 9 11 24 24 29 32 95 59
27 76 121 576 871 918 777 858 957 800 444 144 56 15 49 0 0 0 0 0 0 27 36 2 0 0 0 0 0 0 0 82 13 2 2 7 7 11 19 41 11 8 28
27 121 537 541 447 464 544 675 789 376 182 70 74 53 29 2 0 0 0 0 0 0 0 0 0 0 13 0 1 0 40 55 52 25 9 4 8 8 21 24 26 23 25
25 301 410 284 316 362 269 401 206 118 141 113 64 38 3 4 3 3 4 6 11 5 1 1 5 11 4 8 14 15 6 13 19 12 12 12 13 9 20 22 32 23 21
69 139 187 143 65 40 13 0 0 0 0 2 2 23 1 0 0 0 0 0 0 0 4 15 21 35 17 26 17 2 15 9 18 22 11 4 8 17 20 24 16 10 28
159 32 54 109 109 42 23 0 0 0 0 0 0 0 0 0 0 0 0 0 0 0 23 11 21 25 27 35 18 13 19 11 14 15 21 35 26 18 5 9 24 17 0
69 89 245 117 108 26 18 1 0 2 0 0 0 0 0 0 0 0 0 0 1 6 28 13 26 26 24 28 26 21 11 7 11 3 4 3 10 9 12 8 3 22 19
173 124 71 97 123 118 32 18 23 10 0 0 0 0 0 0 0 0 0 7 9 24 23 30 31 31 28 29 26 21 20 18 11 10 6 4 11 15 14 0 0 0 0
127 61 95 91 32 34 42 46 22 2 3 4 5 0 0 0 0 0 12 27 7 2 0 26 38 28 14 10 14 16 13 0 12 10 8 14 16 3 0 1 48 5 0
55 42 22 54 46 59 50 13 2 3 3 6 4 2 1 6 16 6 0 27 0 0 0 2 16 23 26 19 12 0 5 8 0 7 8 5 17 2 54 0 13 0 0
62 55 53 46 28 25 7 7 4 3 2 3 0 0 0 3 1 0 0 0 21 25 26 23 11 4 20 31 27 21 25 10 2 24 0 23 25 14 18 4 40 26 28
90 81 60 45 7 2 3 3 2 2 2 3 3 2 0 1 2 1 0 0 0 0 0 0 0 0 0 0 0 1 39 40 68 78 50 17 4 24 23 37 69 33 33
7 1 2 2 3 3 3 2 3 2 3 1 1 2 4 3 2 1 1 0 0 0 0 0 0 0 0 0 0 0 0 0 24 27 26 18 11 0 1 0 0 0 0
22 10 9 2 3 3 3 3 3 2 1 1 3 4 1 1 1 0 0 0 0 0 0 0 0 0 0 0 0 0 0 0 0 0 0 0 0 0 0 0 0 0 0
1 2 3 3 3 3 2 1 1 1 1 1 5 4 2 2 0 0 0 0 0 0 0 0 0 0 0 0 0 0 0 0 0 0 0 0 0 0 0 0 0 0 0

GFSGL_con_mlcape_063.txt.gz
CAPE
0 0 0 0 0 0 0 0 41 355 716 1090 1353 1284 1619 2378 3221 3325 3022 2408 2299 2496 2383 2615 2359 2209 1671 1227 1109 892 877 784 377 368 590 717 516 318 192 204 599 413 107
0 0 0 0 0 0 0 0 8 266 972 1474 1467 1339 1648 2516 3029 3122 2783 1893 2423 2536 2581 2353 2186 1848 1667 1480 1080 929 797 723 474 330 674 463 247 300 392 240 173 520 449
0 0 0 0 0 15 4 0 26 130 453 867 1318 1654 1736 2501 2890 2851 2408 2174 2510 2595 2534 2169 1733 1642 1548 1301 1015 859 675 811 684 622 738 216 113 75 221 159 319 337 176
2 0 0 0 5 33 89 51 23 27 265 623 1304 1667 2002 2315 2352 2491 2434 2518 2452 2378 2285 1926 1589 1480 1575 1097 1146 1051 827 610 551 546 395 335 64 118 50 36 43 40 93
18 4 8 7 28 51 47 108 45 47 270 548 1053 1764 2108 2373 2250 2568 2523 2656 2537 2220 1943 1681 1691 1604 1201 1182 994 848 681 717 609 341 230 330 219 25 40 46 67 51 85
18 4 18 20 44 84 90 232 399 220 492 825 1069 1728 2151 2123 1878 2182 2725 2594 2385 1905 1816 1666 1504 1112 877 606 530 367 792 796 671 166 353 335 69 16 19 23 58 62 57
27 6 40 45 59 114 128 154 182 600 1033 1515 1464 2025 2249 2517 1658 1985 2157 2319 1968 1841 1711 1579 1266 1074 863 796 223 68 89 70 103 492 434 98 231 91 42 101 61 138 87
31 8 66 105 123 195 158 242 276 875 1284 1813 1932 2456 2585 2599 1499 1764 1724 1996 1805 1499 1233 1020 890 857 830 609 585 344 303 54 18 95 225 189 279 118 227 141 77 14 126
14 25 91 156 198 283 200 394 476 937 1368 2073 2419 2647 2343 1749 1248 1515 1371 1497 1198 1068 907 898 855 762 526 315 617 368 292 110 0 0 3 72 61 38 214 95 40 15 46
10 44 102 179 272 410 282 517 664 1044 1627 2074 2161 2275 2380 1313 766 1053 972 950 970 787 700 554 181 341 182 62 426 341 166 92 14 35 12 3 1 0 3 165 46 45 32
37 43 108 170 266 402 388 598 1094 1228 1710 1928 1996 2164 1791 1146 615 146 243 618 594 556 409 290 129 0 0 0 14 271 183 55 33 159 230 118 64 24 7 10 6 106 62
53 106 25 131 242 378 522 862 1248 1367 1353 1621 1645 1554 1323 752 77 0 104 62 279 234 229 146 1 0 0 0 17 0 0 34 171 93 65 97 92 34 24 19 143 319 134
72 50 48 71 175 443 673 996 1092 1018 1229 1362 1347 997 782 271 16 0 0 4 13 207 58 24 0 0 0 0 0 0 0 34 44 26 44 30 20 92 78 89 113 187 153
43 36 26 15 227 492 864 1007 967 1145 1228 1156 956 746 398 174 0 5 2 0 0 0 0 0 0 0 2 0 0 0 4 68 69 5 3 25 42 42 31 18 44 16 29
7 0 24 152 213 709 769 888 1126 1230 1233 990 715 372 191 64 20 7 6 13 44 2 0 0 1 11 10 6 9 35 30 23 90 68 1 0 1 0 3 19 18 23 23
12 104 109 370 455 174 208 83 2 22 88 143 212 201 83 17 0 0 0 0 0 0 2 8 25 39 6 10 29 30 22 12 20 21 20 20 17 8 6 22 26 31 34
1 41 251 188 283 338 294 128 52 0 0 0 0 0 0 0 0 0 0 0 0 0 16 18 24 31 17 20 15 16 23 26 23 22 17 18 2 25 22 31 25 28 26
7 169 278 225 245 209 183 123 137 118 50 0 0 0 0 0 0 0 0 0 0 4 25 50 45 40 35 24 19 24 27 19 18 18 28 18 19 24 17 21 24 30 8
189 297 262 173 215 107 111 91 135 99 28 0 0 0 0 0 0 0 0 10 16 23 42 57 20 22 39 31 28 20 26 23 21 19 16 24 15 13 18 12 17 3 0
222 142 119 120 42 35 92 61 66 23 0 0 3 0 0 0 0 4 17 16 28 28 17 36 38 42 40 28 20 21 17 12 15 18 26 25 17 11 7 12 1 0 15
171 129 113 88 87 162 111 84 37 9 6 6 5 2 1 1 7 19 19 29 27 25 22 12 28 18 24 19 17 11 7 2 9 14 8 12 19 26 3 2 7 45 31
161 121 138 129 124 119 62 18 11 4 5 4 1 0 0 15 20 14 20 0 0 3 5 25 35 38 35 32 3 4 13 23 22 10 39 34 32 30 45 42 2 47 6
100 90 89 74 59 20 7 4 4 0 2 3 1 0 1 2 1 1 1 0 0 6 0 1 9 5 1 6 14 18 7 37 74 66 47 32 15 43 60 56 35 22 0
95 97 23 3 3 1 2 2 0 1 5 2 2 2 2 2 0 0 0 0 0 0 2 0 0 2 0 0 0 0 0 2 12 14 34 7 0 0 0 0 0 0 0
65 20 7 1 1 1 1 3 3 4 0 1 3 2 1 0 1 0 0 0 0 0 0 0 0 0 0 0 0 0 0 0 0 0 0 0 0 0 0 0 0 0 0
47 5 5 3 1 2 1 1 1 1 2 2 2 1 0 0 0 0 0 0 0 0 0 0 0 0 0 0 0 0 0 0 0 0 0 0 0 0 0 0 0 0 0

GFSGL_con_mlcape_069.txt.gz
CAPE
0 0 0 0 0 0 0 0 0 0 0 0 1 17 0 0 1129 1419 1755 2203 2335 2371 2389 2402 2457 2651 2467 2210 1576 1206 1080 766 686 480 392 431 283 207 134 89 100 44 13
0 0 4 0 0 0 0 0 0 9 3 0 0 1 121 230 234 1723 2447 2656 2898 2862 2878 2728 2764 2602 2347 1900 1568 1252 1086 849 587 593 383 432 360 198 30 67 45 83 38
0 0 0 0 0 0 0 0 0 0 0 11 5 0 0 216 601 839 2002 2276 2490 2572 2547 2676 2617 2419 2115 1749 1731 1265 981 798 582 415 327 219 236 149 84 10 10 8 0
0 0 0 0 0 0 0 0 6 0 11 0 15 64 28 23 321 1133 1261 1595 1816 2226 2532 2720 2363 2285 1937 1892 1769 1435 1039 807 529 373 233 209 149 27 0 4 0 0 0
0 0 0 0 0 0 0 0 0 1 0 0 0 13 133 76 97 704 1490 1710 2447 2534 2410 2474 2344 1992 1770 1779 1620 1251 678 557 433 322 356 223 90 22 0 0 2 3 3
0 0 0 0 0 0 0 0 7 0 0 0 0 0 102 146 69 269 1344 1845 2286 2120 2280 2380 2074 1888 1743 1677 1581 1072 658 524 330 373 262 194 106 64 0 0 3 4 3
0 0 0 0 0 0 0 0 20 5 0 0 0 11 0 109 193 66 517 1604 1985 1896 2131 2068 1666 1314 1141 942 808 607 448 428 380 287 303 78 82 92 12 37 23 15 5
0 0 0 0 0 0 0 0 2 3 0 0 0 0 0 192 295 289 690 1239 1763 1760 1825 1656 1172 930 749 697 591 395 221 275 221 170 105 75 78 90 33 13 19 27 26
0 0 0 0 0 0 0 0 0 6 4 0 16 39 129 182 262 375 525 1098 1566 1548 1488 1528 1099 947 638 508 440 271 189 28 0 1 7 18 32 29 65 40 53 38 45
0 0 0 0 0 0 0 0 0 4 71 19 13 42 98 77 211 429 340 1037 1309 1004 1063 1169 1020 727 562 569 475 361 194 18 0 0 0 0 3 25 3 17 26 41 16
0 0 0 0 0 0 0 0 0 0 16 29 2 15 45 187 433 361 522 1211 997 718 911 760 411 354 261 187 398 350 220 4 0 0 0 0 26 23 29 74 39 25 33
0 1 0 0 0 0 2 0 0 0 118 108 6 0 0 1 406 502 611 1025 876 809 697 278 65 58 32 15 82 15 0 0 0 0 4 12 16 9 19 18 34 29 41
3 0 0 0 9 0 1 0 32 124 83 98 41 0 62 1 159 276 472 723 699 684 328 80 0 0 0 0 0 0 0 0 0 11 4 30 35 13 1 0 6 4 36
2 4 0 2 0 0 0 21 54 8 45 140 79 62 90 36 184 14 191 138 141 62 0 0 0 0 0 0 0 0 0 0 0 13 15 26 64 17 3 0 0 4 1
3 5 13 1 0 0 0 2 84 157 194 114 148 193 479 203 71 31 380 219 110 13 0 0 0 0 0 0 0 0 0 0 2 0 0 2 5 7 3 1 3 4 3
5 3 3 0 0 0 0 3 1 9 17 13 26 272 567 171 0 1 16 37 0 0 0 0 0 0 0 0 0 0 0 0 8 0 0 0 13 10 13 11 8 6 15
1 2 4 4 20 49 3 0 0 0 0 0 0 145 138 0 3 0 0 0 0 0 0 0 0 0 0 0 0 0 0 9 22 9 8 11 9 5 0 2 9 27 4
2 0 3 8 12 22 20 17 31 16 41 7 0 76 0 0 0 0 0 0 0 0 0 0 0 0 0 0 0 0 0 16 19 18 24 27 7 17 18 15 13 8 6
0 1 0 2 16 20 40 89 54 65 17 0 1 0 0 0 0 0 0 0 0 0 0 2 0 0 0 0 0 0 1 11 9 14 14 14 15 18 12 3 5 6 0
0 16 10 2 22 76 66 50 31 2 5 2 1 0 0 0 0 0 0 0 0 0 3 3 1 1 4 2 0 1 2 8 10 11 22 23 17 22 22 18 8 2 4
0 12 65 64 37 111 23 16 26 3 3 1 0 0 0 0 0 0 0 0 0 6 7 4 1 3 6 0 0 0 3 9 15 14 12 21 15 17 14 8 8 16 17
3 0 0 0 5 39 9 2 2 2 2 1 0 0 0 0 0 0 1 4 3 4 11 5 18 14 10 0 0 6 2 6 8 10 12 19 21 19 10 13 0 3 0
118 105 13 41 26 3 1 1 1 1 0 0 0 0 1 0 0 0 1 0 0 0 1 1 2 1 0 0 0 2 4 0 0 0 0 1 4 8 0 0 0 0 0
45 19 6 0 0 0 1 1 0 0 0 0 0 0 0 0 0 0 0 0 0 0 0 0 0 0 0 0 0 0 0 0 0 0 0 0 0 0 0 0 0 0 0
17 2 0 0 0 1 1 1 1 1 0 0 0 0 0 0 0 0 0 0 0 0 0 0 0 0 0 0 0 0 0 0 0 0 0 0 0 0 0 0 0 0 0
0 0 0 0 0 0 0 0 1 1 1 0 0 0 0 0 0 0 0 0 0 0 0 0 0 0 0 0 0 0 0 0 0 0 0 0 0 0 0 0 0 0 0

GFSGL_con_mlcape_072.txt.gz
CAPE
0 0 0 0 0 0 0 0 0 0 0 5 5 5 3 15 33 95 187 697 594 18 80 87 343 1128 1657 1806 1607 1640 1216 575 543 397 255 189 172 151 100 54 45 33 0
0 0 0 0 0 0 0 0 0 0 0 0 0 0 8 7 9 18 309 241 455 483 457 1117 1488 2027 2116 2187 1699 1414 1044 541 683 655 319 227 212 91 47 67 50 70 29
0 0 0 0 0 0 0 0 0 0 0 0 0 0 0 6 18 30 62 410 1526 1788 1910 1924 1855 2117 2034 1820 1483 1478 1059 682 669 574 403 207 139 78 10 8 1 0 0
0 0 0 0 0 0 0 0 0 0 0 0 0 0 0 0 0 0 55 113 355 1511 2015 2192 2320 2176 1965 1592 1528 1415 968 852 661 475 319 218 122 42 10 4 0 0 0
0 0 0 0 0 0 0 0 0 0 0 0 0 0 0 0 0 1 10 59 139 581 1178 1481 1849 1926 1778 1805 1461 1306 1074 759 586 444 290 148 144 82 54 0 0 0 0
0 0 0 0 0 0 0 0 0 0 0 0 0 0 0 0 0 0 1 10 65 376 1113 1679 1937 1757 1817 1598 1476 1317 1011 754 465 359 247 219 120 78 0 0 0 0 0
0 0 0 0 0 0 0 0 0 0 0 0 0 0 0 0 0 0 0 0 11 112 360 1507 1606 1556 1635 1359 1057 1198 880 558 443 306 267 157 156 69 0 2 0 0 0
0 0 0 0 0 0 0 0 0 0 0 0 0 2 0 0 0 0 0 0 10 153 472 1265 1196 1058 1139 1003 869 855 494 326 242 204 193 170 77 39 30 13 2 1 0
0 0 0 0 0 0 0 0 0 0 0 0 0 0 0 0 0 0 0 20 35 217 623 1052 1018 793 511 689 708 596 315 148 0 0 2 0 1 0 8 3 9 22 22
0 0 0 0 0 0 0 0 0 0 0 0 0 6 28 16 0 0 0 14 37 326 592 749 522 525 158 370 603 374 192 47 12 1 0 0 0 0 6 14 18 21 35
0 0 0 0 0 0 0 0 0 0 0 0 0 0 0 9 0 0 0 0 130 352 517 463 385 372 145 217 324 206 137 0 0 0 0 0 0 2 11 3 0 1 14
0 0 0 0 0 0 0 0 0 0 0 0 0 0 32 7 0 0 0 0 17 587 540 404 79 104 101 193 218 76 24 0 0 0 0 0 4 16 18 9 8 14 11
9 4 0 0 0 0 2 0 0 0 0 0 0 0 0 0 0 0 0 0 0 513 116 89 1 12 44 29 7 1 0 0 0 0 0 3 8 7 3 0 5 3 5
8 4 0 6 4 0 4 2 0 0 7 17 27 0 21 0 0 0 0 0 0 0 0 0 0 10 0 0 0 0 0 0 0 1 3 3 7 0 0 0 0 0 9
9 6 3 0 4 5 1 0 0 3 0 0 37 98 11 0 0 9 0 1 44 13 0 0 1 0 0 0 0 0 0 0 0 0 5 3 0 0 0 0 0 0 0
3 6 3 0 3 0 0 0 0 0 4 12 44 61 3 15 38 43 0 0 0 9 9 0 0 0 0 0 0 0 0 0 0 0 1 5 5 4 7 12 4 10 9
6 3 5 2 3 0 2 4 1 0 0 0 0 0 0 0 0 0 0 0 0 8 11 0 0 0 0 0 0 0 0 0 0 0 0 3 10 12 14 17 15 8 4
0 0 4 14 0 4 3 0 0 0 0 0 0 0 0 0 0 0 0 0 17 0 0 0 0 0 0 0 0 0 0 0 2 5 5 12 11 6 1 6 12 11 3
1 1 0 0 2 3 1 0 0 0 0 0 0 0 0 0 0 0 1 29 2 0 0 0 0 0 0 0 0 0 0 2 4 5 19 20 6 18 17 11 5 0 1
0 0 0 0 1 13 5 5 0 7 12 1 1 0 3 0 1 1 1 0 0 0 0 0 0 0 0 0 0 0 0 0 0 10 15 16 16 21 14 5 3 1 0
0 0 0 1 3 1 1 24 31 6 1 3 4 2 1 2 9 0 1 0 0 0 0 0 0 0 0 0 0 0 0 0 4 15 13 12 17 21 19 11 6 2 1
4 18 1 5 32 22 11 13 4 2 0 0 0 0 0 0 0 0 0 0 0 5 2 0 0 2 0 0 0 0 6 10 11 15 15 16 16 13 8 12 4 0 0
3 4 1 0 23 4 8 15 7 12 3 1 1 1 0 0 0 0 0 0 0 3 1 0 0 0 0 0 0 0 0 1 6 13 10 13 10 1 1 1 0 0 0
0 0 4 3 2 2 4 2 1 0 1 1 1 1 0 0 0 0 0 0 0 0 0 0 0 0 0 0 0 0 0 0 0 0 0 0 0 0 0 0 0 0 0
2 2 2 1 1 1 1 1 1 0 1 1 1 0 0 0 0 0 0 0 0 0 0 0 0 0 0 0 0 0 0 0 0 0 0 0 0 0 0 0 0 0 0
0 1 2 2 2 2 1 1 1 0 0 0 0 0 0 0 0 0 0 0 0 0 0 0 0 0 0 0 0 0 0 0 0 0 0 0 0 0 0 0 0 0 0

GFSGL_con_mlcape_075.txt.gz
CAPE
0 0 0 0 0 0 0 0 0 0 0 0 0 0 0 0 7 29 41 107 142 194 126 201 254 82 32 189 739 709 758 476 665 635 195 135 216 162 126 69 78 43 0
0 0 0 0 0 0 0 0 0 0 0 0 0 0 0 0 0 0 35 87 130 77 34 166 208 293 219 448 795 994 885 540 497 433 269 244 153 28 24 39 46 50 8
0 0 0 0 0 0 0 0 0 0 0 0 0 0 0 0 0 0 0 0 0 126 322 422 911 907 666 901 1110 1196 927 600 292 229 277 92 49 10 14 4 3 0 0
0 0 0 0 0 0 0 0 0 0 0 0 0 0 0 0 6 9 0 0 0 39 150 291 367 883 1474 1500 1559 1409 1010 510 286 319 332 195 130 25 16 30 14 0 0
0 0 0 0 0 0 0 0 0 0 0 0 0 0 0 0 0 0 0 0 0 8 12 143 367 604 1044 1485 1644 1426 920 576 375 275 340 162 133 93 115 5 9 0 0
0 0 0 0 0 0 0 0 0 0 0 0 0 0 0 0 0 0 0 0 0 0 0 0 117 458 496 817 1308 1529 830 624 550 403 266 225 142 91 0 11 0 0 0
0 0 0 0 0 0 0 0 0 0 0 0 0 0 0 0 0 0 0 0 0 0 0 0 40 260 541 917 948 801 615 548 612 516 392 240 166 50 8 0 0 0 0
0 0 0 0 0 0 0 0 0 0 0 0 0 0 0 0 0 0 0 0 0 0 0 13 50 165 523 882 840 423 200 171 254 249 238 144 75 6 1 5 0 0 0
0 0 0 0 0 0 0 0 0 0 0 0 0 0 0 0 0 0 0 0 0 12 13 36 137 409 618 426 377 242 181 89 0 0 3 0 0 0 0 0 0 0 2
0 0 0 0 0 0 0 0 0 0 0 0 0 0 0 0 0 0 0 0 0 0 0 17 170 314 305 273 338 230 161 97 36 0 0 0 0 0 0 0 0 0 18
0 0 0 0 0 0 0 0 0 0 0 0 0 0 0 0 0 0 0 0 0 0 0 0 84 175 248 183 176 63 88 0 0 0 0 0 0 0 0 0 0 4 6
1 0 0 0 0 0 0 0 0 0 0 0 0 0 0 0 0 0 0 0 0 0 0 0 94 181 44 51 136 73 9 0 0 0 0 0 0 0 0 1 0 0 0
3 5 0 0 0 0 0 0 0 0 0 0 0 0 0 0 0 4 0 0 0 0 0 1 131 20 0 0 9 12 0 0 0 0 0 0 0 0 0 4 1 0 1
4 4 2 3 1 1 0 0 0 0 0 0 0 0 0 0 0 0 0 0 0 0 0 0 0 0 0 0 0 0 0 0 0 0 0 0 0 0 0 0 0 0 6
23 13 5 13 6 3 4 1 0 0 0 0 0 0 0 0 0 0 0 0 0 0 0 0 4 50 27 1 0 0 0 0 0 0 0 0 0 0 0 0 0 0 1
15 11 1 1 11 7 11 2 0 1 0 0 0 0 0 0 0 0 0 0 0 0 1 11 52 2 3 15 0 0 0 0 0 0 0 0 0 0 0 0 0 0 0
10 10 12 14 8 3 5 4 0 0 0 0 0 0 0 0 0 0 0 0 0 0 31 7 25 2 0 0 0 0 0 0 0 0 0 0 0 7 10 8 5 0 9
4 2 11 6 2 2 3 8 1 1 0 0 0 0 0 0 0 0 0 0 0 0 2 3 0 0 0 0 0 0 0 0 0 0 0 4 11 8 12 16 14 15 5
4 6 0 0 2 0 0 0 0 0 0 0 0 0 0 0 0 0 0 1 1 2 1 0 0 0 0 0 0 0 0 0 0 0 0 11 9 2 2 7 5 2 3
4 4 1 0 0 9 5 4 0 0 0 0 0 0 0 0 0 0 2 3 2 2 1 0 0 0 0 0 0 0 0 0 0 2 9 7 3 19 11 5 1 0 0
0 0 0 0 0 0 7 4 0 0 0 0 0 0 1 1 0 2 2 29 16 1 0 0 0 0 0 0 0 0 0 0 3 21 28 19 20 23 17 12 3 1 2
0 1 0 0 5 0 2 21 23 7 11 0 1 0 0 6 7 13 0 0 1 0 0 0 0 0 0 0 0 0 0 4 11 16 13 18 18 18 23 12 8 5 1
3 3 2 0 0 2 9 9 7 1 0 0 0 0 9 1 5 0 0 0 0 0 0 0 0 0 0 0 0 0 0 6 13 19 18 12 13 10 7 3 1 0 0
5 4 18 25 29 9 8 4 1 4 0 2 2 3 1 0 0 0 0 0 0 0 0 0 0 0 0 0 0 0 2 4 13 17 7 1 0 0 0 0 0 0 0
1 1 4 2 0 4 7 9 1 0 1 0 2 1 0 0 0 0 0 0 0 0 0 0 0 0 0 0 0 0 0 0 0 0 0 0 0 0 0 0 0 0 0
1 1 1 1 2 1 1 1 1 2 2 3 1 0 0 0 0 0 0 0 0 0 0 0 0 0 0 0 0 0 0 0 0 0 0 0 0 0 0 0 0 0 0

GFSGL_con_mlcape_078.txt.gz
CAPE
0 0 0 0 0 0 0 0 0 0 0 0 0 0 0 0 4 9 39 98 141 150 235 216 155 53 60 74 243 247 179 221 98 330 356 172 155 162 126 81 53 20 11
0 0 0 0 0 0 0 0 0 0 0 0 0 0 0 0 0 0 0 0 0 0 0 83 174 253 176 154 156 236 423 409 236 324 495 199 166 62 52 45 4 0 0
0 0 0 0 0 0 0 0 0 0 0 0 0 0 0 0 0 0 0 0 0 0 0 0 106 291 379 233 412 614 504 269 189 465 429 113 96 22 20 0 0 0 0
0 0 0 0 0 0 0 0 0 0 0 0 0 0 0 0 0 0 0 0 0 0 0 0 7 34 110 495 802 919 1079 780 456 606 284 181 119 27 17 59 34 0 0
0 0 0 0 0 0 0 0 0 0 0 0 0 0 0 0 0 0 0 0 0 0 0 0 0 0 0 86 366 612 873 948 818 341 154 90 131 123 204 70 53 3 0
0 0 0 0 0 0 0 0 0 0 0 0 0 0 0 0 0 0 0 0 0 0 0 0 0 0 0 8 103 213 477 1013 724 272 111 127 140 133 70 67 25 15 34
0 0 0 0 0 0 0 0 0 0 0 0 0 0 0 0 0 0 0 0 0 0 0 0 0 0 0 50 117 244 377 298 408 231 142 88 81 128 55 35 5 22 13
0 0 0 0 0 0 0 0 0 0 0 0 0 0 0 0 0 0 0 0 0 0 0 0 0 5 35 63 188 567 478 217 124 167 130 173 118 57 51 54 27 0 0
0 0 0 0 0 0 0 0 0 0 0 0 0 0 0 0 0 0 0 0 0 0 0 6 4 4 58 46 139 596 310 72 0 1 6 28 1 0 1 0 0 4 0
0 0 0 0 0 0 0 0 0 0 0 0 0 0 0 0 0 0 0 0 0 0 10 0 0 0 0 0 113 390 374 171 20 15 9 0 0 0 0 3 0 2 3
0 0 0 0 0 0 0 0 0 0 0 0 0 0 0 0 0 0 0 0 0 0 0 0 0 0 0 0 68 417 321 41 23 54 12 0 0 0 0 0 0 5 0
1 0 0 0 0 0 0 0 0 0 0 0 0 0 0 0 0 0 0 0 0 0 0 0 0 0 0 0 0 63 16 16 3 7 0 0 0 0 0 0 0 0 2
16 4 1 0 0 0 0 0 0 0 0 0 0 0 0 0 0 0 0 0 0 0 0 0 0 0 0 0 0 0 0 4 16 0 0 0 0 0 0 1 2 3 3
24 14 13 7 6 3 1 0 0 0 0 0 0 0 0 0 0 0 0 0 0 0 0 0 0 0 0 0 0 0 10 8 15 0 0 0 0 0 0 2 6 5 10
13 10 1 11 8 0 0 4 0 0 0 0 0 0 0 0 0 0 0 0 0 0 0 0 0 0 0 0 0 0 13 0 0 0 0 0 0 1 1 1 1 0 3
14 3 11 7 12 10 12 8 2 2 0 0 0 0 0 0 0 0 0 0 0 0 0 0 0 0 9 25 17 15 7 0 0 0 0 0 0 0 0 0 0 0 0
6 9 20 8 12 26 21 13 5 1 0 0 0 0 0 0 0 0 0 0 1 0 1 2 0 12 38 4 0 0 0 0 0 0 0 0 0 0 0 0 0 0 1
7 5 11 12 9 11 8 9 9 9 3 0 0 0 0 0 0 0 0 0 0 0 3 54 22 31 0 0 0 0 0 0 0 0 0 0 5 10 12 7 6 16 10
6 3 4 4 7 3 2 3 5 0 0 0 0 0 0 0 0 0 0 0 0 0 0 23 1 0 0 0 0 0 0 0 0 0 0 5 19 18 15 15 8 8 5
7 2 2 4 4 1 0 2 10 0 1 0 0 0 0 0 0 0 0 0 0 0 2 0 1 2 2 0 0 0 0 0 0 0 0 13 8 4 6 8 7 8 6
0 0 0 0 2 7 3 5 3 5 1 2 1 0 0 0 0 0 0 0 0 3 0 1 0 0 0 0 0 0 0 0 0 5 11 16 13 22 6 8 12 9 6
0 0 0 0 0 0 0 9 6 2 1 0 0 0 0 0 0 0 0 1 1 1 1 1 1 0 0 0 0 0 0 0 7 19 28 22 21 20 21 18 11 7 5
0 0 0 0 0 4 0 3 12 9 15 11 1 0 0 3 4 17 2 3 2 0 0 0 0 0 0 0 0 1 1 9 17 19 17 19 20 19 17 8 2 0 0
3 2 1 1 0 0 4 4 21 4 3 0 7 23 9 4 0 0 1 1 3 0 0 0 0 0 0 0 0 0 6 11 20 11 4 5 2 0 0 0 0 0 0
31 18 15 5 2 4 19 11 5 3 0 0 0 0 0 0 0 0 0 0 0 0 0 0 0 0 0 0 0 0 0 0 1 0 0 0 0 0 0 0 0 0 0
2 1 1 0 0 0 0 0 0 0 0 0 0 0 1 0 0 0 0 0 0 0 0 0 0 0 0 0 0 0 0 0 0 0 0 0 0 0 0 0 0 0 0

GFSGL_con_mlcape_084.txt.gz
CAPE
768 1022 985 863 714 684 678 632 584 633 625 527 744 1034 1215 1339 1750 2004 2101 1876 1645 1471 1385 1212 1041 1011 837 689 577 479 197 167 154 75 149 156 262 500 909 1305 881 715 252
383 622 636 742 634 676 570 530 547 614 529 420 461 471 488 728 1100 1198 1188 1084 1123 1004 784 377 271 212 440 650 601 579 285 178 236 15 16 0 101 847 989 672 823 687 878
9 282 339 546 748 799 739 633 581 447 438 434 397 397 310 155 207 87 10 27 37 0 0 0 0 0 3 21 132 169 359 327 302 302 73 23 239 1057 562 663 741 698 746
0 0 81 365 546 753 871 740 602 420 264 251 218 163 85 60 26 17 14 12 0 0 0 0 0 0 0 0 0 0 31 145 284 589 796 697 884 776 310 120 219 420 583
0 0 0 0 88 502 704 885 705 453 302 207 189 72 39 35 10 0 0 0 0 0 0 0 0 0 0 0 0 0 0 0 18 142 670 844 823 600 174 350 636 649 500
0 0 0 0 0 2 243 714 909 608 404 156 38 32 118 6 0 0 0 0 0 0 0 0 0 0 0 0 0 0 0 0 4 137 399 599 1089 859 634 614 685 877 838
0 0 0 0 0 0 0 90 544 723 635 488 283 80 68 4 0 0 0 0 0 0 0 0 0 0 0 0 0 0 0 28 72 369 459 692 1267 1095 1194 944 790 796 758
4 1 0 0 0 0 0 0 51 394 776 909 647 394 154 56 0 0 0 0 0 0 0 0 0 0 52 1 0 8 55 156 220 321 577 627 1176 1280 1055 883 885 788 747
13 11 8 0 0 0 0 0 0 162 507 623 626 349 161 84 0 0 0 0 0 0 0 0 0 0 0 0 7 0 3 19 35 209 420 162 199 426 697 507 647 625 505
19 1 21 14 6 1 1 0 0 25 236 329 363 300 128 79 0 0 0 0 0 0 0 0 0 0 0 0 25 0 0 0 136 826 186 21 118 107 45 475 557 550 374
13 19 3 0 5 15 11 16 5 0 5 116 195 185 65 17 14 0 0 0 0 0 0 0 0 0 0 0 0 0 0 0 10 490 332 380 169 67 79 259 695 437 295
3 5 5 17 15 15 35 10 8 10 2 9 28 13 4 7 0 0 0 0 0 0 0 0 0 0 0 0 0 0 0 0 95 229 400 203 149 105 151 344 441 412 468
5 6 3 10 7 7 18 36 23 13 6 0 0 0 1 0 2 0 0 0 0 0 0 0 0 0 0 0 0 0 0 0 343 395 472 227 212 392 201 349 423 315 268
4 4 5 9 10 8 1 12 22 16 7 4 0 0 0 0 0 0 0 0 0 0 0 0 0 0 0 0 0 0 0 212 543 629 353 305 348 130 199 248 246 220 234
4 4 4 4 9 11 5 0 17 15 10 6 6 3 2 0 0 0 0 0 0 0 0 0 0 0 0 0 0 0 0 395 459 435 268 164 166 137 217 173 173 234 238
4 2 6 4 4 13 9 4 0 8 10 0 0 2 5 1 0 0 0 0 0 0 0 0 0 0 0 0 0 0 2 186 307 184 126 179 164 145 113 127 256 253 184
3 5 3 4 8 6 17 4 20 11 0 0 0 0 0 0 0 0 0 0 0 0 0 0 0 0 0 0 0 3 12 185 238 273 399 213 147 109 57 172 177 180 130
4 2 4 2 6 7 2 14 16 11 20 20 0 0 0 0 0 0 0 0 0 0 0 0 0 0 0 3 0 123 18 143 316 447 305 229 155 194 103 94 109 97 104
0 5 21 13 14 17 8 11 11 21 16 14 12 0 0 0 0 0 0 0 0 0 0 0 0 0 7 5 125 26 121 111 188 367 281 166 138 100 96 69 100 46 36
6 0 1 0 5 6 1 1 5 16 27 20 9 7 2 0 0 0 0 1 13 5 12 0 1 4 7 90 130 193 190 136 350 347 212 169 217 152 166 119 10 0 20
4 3 0 4 4 8 12 18 20 21 10 2 0 13 3 0 1 0 0 1 1 0 11 24 15 7 4 193 83 235 221 281 332 183 140 176 180 155 37 5 4 18 34
2 8 4 4 3 4 9 14 11 15 23 35 15 4 0 1 9 11 9 7 5 8 17 22 26 15 44 0 169 268 314 229 225 169 192 193 157 79 11 8 26 41 18
4 11 5 5 4 0 9 30 20 14 2 1 4 4 3 2 9 12 21 24 16 16 19 35 46 25 6 2 243 330 224 235 291 195 240 103 8 6 53 25 29 8 3
1 1 5 5 10 14 8 42 69 44 38 35 13 2 3 4 1 7 35 31 31 27 19 35 36 7 2 96 270 219 262 299 273 257 189 95 48 24 28 30 15 0 0
1 1 11 10 20 9 40 9 20 33 54 29 0 9 14 6 2 10 28 18 11 48 11 7 16 36 137 196 232 229 65 45 194 80 54 46 24 7 0 0 0 0 0
5 4 3 2 1 5 5 8 3 1 1 0 0 1 2 4 7 13 14 65 35 22 28 44 75 122 280 209 212 2 0 0 7 8 0 0 0 0 0 0 0 0 0

GFSGL_con_mlcape_087.txt.gz
CAPE
443 660 967 1442 1740 1796 1706 992 1003 1868 2476 2397 2179 2341 2774 2807 2877 2516 2463 2077 1963 2158 1959 1750 1689 1205 1190 1398 1337 934 610 436 354 377 419 244 515 358 19 610 1076 1139 936
226 416 815 1038 1162 1140 1094 6 670 1415 1808 1435 1469 1403 1444 1532 1826 2031 2116 2043 1996 1968 2191 2003 1850 1739 1705 1590 1285 743 646 690 560 303 392 372 220 133 82 809 709 887 817
93 116 137 688 920 938 698 643 612 835 1006 819 646 795 872 873 1133 1309 1427 1544 1528 1665 1687 1517 1047 760 536 543 663 459 563 536 449 313 233 230 294 60 0 538 951 828 1077
0 29 93 130 563 793 882 747 656 654 658 620 586 604 546 594 822 892 906 1122 1034 818 384 132 56 12 8 37 87 184 117 48 16 102 250 214 256 511 1096 697 601 570 606
2 2 1 77 58 360 787 822 668 528 395 399 624 641 577 665 606 542 436 407 396 176 13 0 0 0 0 0 0 0 4 0 0 0 2 77 147 303 838 750 509 508 809
14 4 1 0 28 2 57 571 976 799 567 537 482 471 527 516 484 328 590 413 81 1 0 0 0 0 0 0 0 0 0 0 0 0 0 0 163 235 555 855 786 805 137
0 17 7 0 0 5 0 19 641 1149 1175 882 531 490 509 491 137 70 42 94 27 0 0 0 0 0 0 0 0 0 0 0 0 0 163 115 170 412 626 793 948 824 239
1 0 4 16 2 0 0 0 66 531 958 946 1065 581 447 618 0 0 0 99 2 0 0 0 0 0 0 1 30 1 0 39 125 164 192 424 530 712 767 1090 941 692 350
0 1 0 3 9 13 0 0 12 12 481 879 957 1269 938 689 0 0 0 0 0 0 0 0 0 0 0 0 4 0 0 0 1 0 0 52 167 275 134 293 521 47 18
1 0 0 0 0 0 9 0 0 26 17 229 664 829 1264 1213 0 0 0 0 0 0 0 2 0 0 0 0 0 27 12 0 0 12 22 163 206 156 68 182 108 33 84
7 4 3 2 1 0 0 28 0 0 0 0 79 357 661 1084 83 0 0 0 0 0 0 0 0 0 0 0 0 56 8 0 0 0 0 423 445 514 331 83 33 66 315
7 4 4 4 0 0 1 0 14 1 0 0 0 84 404 570 667 0 0 0 0 0 0 0 0 0 0 0 0 0 0 0 0 0 13 465 605 414 195 210 627 491 488
5 4 5 6 14 3 1 0 1 43 0 0 0 1 241 569 595 0 0 0 0 0 0 0 0 0 0 0 0 0 0 0 0 9 407 614 724 516 322 489 348 417 515
3 2 3 3 5 10 3 0 2 22 33 97 141 146 145 454 549 32 0 0 0 0 0 0 0 0 0 0 0 0 0 0 1 351 514 769 774 853 442 552 608 417 336
3 3 5 3 4 3 3 3 0 15 28 28 207 171 321 385 392 286 0 0 0 0 0 0 0 0 0 0 0 0 0 0 102 419 572 743 598 482 459 383 315 295 313
6 4 3 5 3 4 5 3 0 0 0 0 0 68 116 210 169 44 4 0 0 0 0 0 0 0 0 0 0 0 16 4 150 635 588 514 304 446 405 286 295 373 305
3 3 2 6 3 3 9 7 3 0 0 0 0 0 0 0 5 17 0 0 0 0 0 0 0 0 0 0 0 0 11 5 161 575 389 265 506 418 287 241 265 300 224
2 2 3 3 2 3 6 8 12 7 2 0 0 0 0 0 0 0 0 0 0 0 0 0 0 0 0 0 0 0 11 8 168 378 301 498 465 388 277 261 263 359 217
1 0 0 1 0 7 0 3 26 15 13 0 0 0 0 0 0 0 0 0 0 0 0 0 0 0 0 0 0 10 2 125 80 338 437 455 416 362 251 245 225 160 125
1 0 2 0 21 7 1 6 3 8 3 12 0 0 1 0 0 0 0 0 0 0 0 0 0 0 0 0 4 17 122 254 171 408 432 437 282 206 253 190 168 148 57
3 0 0 0 0 0 0 6 39 31 6 13 5 15 11 0 0 0 0 0 0 0 0 0 0 0 0 0 7 232 410 301 470 449 481 337 229 327 188 96 110 65 50
0 3 0 0 1 5 0 1 0 0 0 0 0 5 0 0 0 0 0 0 0 0 0 0 5 2 1 3 3 394 367 393 468 442 525 382 373 188 122 97 54 52 1
3 0 1 0 1 1 2 3 1 2 2 1 3 1 8 13 12 4 1 1 1 1 0 0 4 0 22 18 234 305 423 418 340 535 486 270 149 161 99 51 68 18 4
0 4 15 19 0 0 3 29 3 2 6 13 18 31 15 7 19 19 18 15 15 9 4 5 8 9 62 47 205 213 420 472 441 448 210 122 163 108 98 79 45 14 0
5 2 2 2 26 35 40 18 39 52 24 20 19 4 0 4 1 12 9 19 4 3 4 3 11 87 63 162 160 377 405 144 263 210 177 116 74 61 4 0 0 0 0
7 6 7 6 4 3 2 1 1 2 2 14 20 29 8 2 1 0 10 27 24 19 23 88 94 112 152 260 319 191 21 59 37 28 129 89 46 7 1 0 0 0 0

GFSGL_con_mlcape_093.txt.gz
CAPE
1 0 0 0 0 1 17 38 97 414 405 295 338 345 331 113 37 0 0 0 0 0 92 898 819 884 850 867 786 610 469 512 420 627 615 436 284 238 526 316 215 42 14
0 0 0 0 0 0 5 0 44 137 186 265 360 375 215 128 35 4 0 0 0 0 150 408 956 918 1027 1089 877 796 745 771 831 805 573 458 322 97 50 161 127 44 21
0 0 0 0 0 0 0 4 1 65 101 64 126 230 217 130 73 30 0 0 0 7 180 364 728 1005 1212 1267 1264 831 760 619 600 534 640 370 45 0 7 127 234 166 205
0 0 0 0 0 0 0 0 0 2 65 85 9 141 131 57 22 0 0 0 0 46 568 1011 947 1330 1180 790 725 576 500 470 232 139 22 0 0 0 0 49 44 21 43
0 0 0 0 0 0 0 0 0 0 16 47 204 52 39 1 35 0 0 4 67 224 670 1141 1102 1258 848 519 477 211 27 9 0 0 0 0 0 0 0 0 0 5 22
2 0 0 0 0 0 0 0 0 0 0 22 10 11 11 0 0 0 4 26 119 552 747 786 258 103 0 0 0 0 0 0 0 0 0 0 0 0 0 0 48 11 1
10 5 2 4 0 0 0 0 0 0 0 0 12 29 73 3 5 6 1 133 688 554 347 80 0 0 0 0 0 0 0 0 0 0 0 0 0 0 0 0 3 25 39
3 11 10 1 1 3 3 0 0 0 0 0 1 9 26 0 3 16 113 478 373 162 40 0 0 6 26 35 22 32 5 0 0 0 0 0 0 0 0 8 44 142 125
2 2 4 3 3 6 1 7 0 0 0 0 0 0 0 3 0 0 380 238 81 2 0 0 16 0 0 0 0 0 0 1 0 2 0 0 0 0 0 0 0 8 9
2 1 1 1 2 0 1 2 0 4 3 0 0 0 0 0 0 0 140 38 0 4 0 0 0 0 0 0 0 0 0 0 25 65 0 0 0 0 0 0 94 178 91
1 1 0 1 1 1 3 3 14 6 6 0 0 0 27 7 0 0 8 92 65 43 0 14 0 0 0 0 0 0 0 0 0 0 0 0 0 0 0 127 100 128 80
1 1 1 1 1 3 1 2 2 1 6 0 0 0 16 53 13 0 0 0 44 12 9 27 6 0 0 0 0 0 0 0 0 0 0 0 0 0 212 548 455 255 93
1 1 1 1 1 0 1 2 5 5 6 0 0 0 36 69 23 0 0 0 0 0 0 0 0 0 0 0 0 0 0 0 0 0 0 0 0 31 424 425 319 276 194
1 1 1 13 7 5 1 2 2 3 11 1 0 0 1 18 0 25 0 0 0 0 0 0 0 0 0 0 0 0 0 0 0 0 0 0 102 17 355 400 234 88 61
1 2 2 4 9 6 2 3 2 4 5 4 0 0 0 6 10 17 3 0 0 0 0 0 0 0 0 0 0 0 0 0 0 0 0 0 5 149 492 426 228 133 65
3 2 0 0 3 4 4 2 0 3 5 14 2 0 0 0 0 0 0 0 0 0 0 0 0 0 0 0 0 0 0 0 0 0 3 80 0 110 476 258 190 80 38
3 1 0 0 1 2 3 1 3 1 0 0 4 0 0 0 0 0 0 0 0 0 0 0 0 0 0 0 0 0 0 0 0 0 4 10 3 414 488 202 160 84 47
2 0 0 0 0 0 0 0 0 4 0 1 1 0 0 0 0 0 0 0 0 0 0 0 0 0 0 0 0 0 0 0 0 1 41 12 5 163 359 227 125 56 50
1 0 0 0 0 0 0 0 1 1 4 0 2 1 0 0 0 0 0 0 0 0 0 0 0 0 0 0 0 0 0 0 0 10 49 29 20 95 282 189 115 45 43
0 1 0 0 0 0 0 0 0 0 4 4 2 0 0 0 0 0 0 0 0 0 0 0 0 0 0 0 0 0 0 0 0 9 35 64 52 33 170 111 83 47 72
3 2 1 0 0 0 0 0 0 2 2 7 1 0 0 0 0 0 0 0 0 0 0 0 0 0 0 0 0 0 0 0 0 0 69 78 66 47 168 102 75 25 0
4 3 2 2 0 0 0 0 3 0 5 1 8 4 0 0 0 0 0 0 0 0 0 0 0 0 0 0 0 0 0 0 45 175 163 81 102 236 113 79 43 0 0
5 5 5 5 4 3 0 0 0 0 0 4 4 0 0 0 0 0 0 0 0 0 0 0 0 0 0 0 0 0 0 0 49 126 95 94 202 141 80 51 5 0 0
4 5 6 6 6 5 5 1 0 0 0 0 2 3 0 0 0 0 0 0 0 0 0 0 0 0 0 0 0 0 269 400 443 251 160 222 159 94 45 17 5 0 0
4 5 6 8 8 7 6 4 2 0 0 0 1 0 0 0 0 0 0 0 0 0 0 0 0 0 0 0 0 0 42 48 58 120 208 244 150 77 49 30 15 0 0
3 4 5 5 6 7 7 6 5 4 1 0 0 0 0 0 0 0 0 0 0 0 0 0 0 0 0 0 0 0 16 2 1 53 224 165 74 69 55 27 0 0 0

GFSGL_con_mlcape_096.txt.gz
CAPE
0 0 0 0 0 0 0 0 0 0 0 0 0 7 81 273 418 419 296 261 142 14 12 1 15 0 0 0 110 181 294 277 329 231 230 231 309 187 72 386 554 233 64
0 0 0 0 0 0 0 0 0 0 0 0 0 0 32 166 247 254 246 158 23 0 0 0 0 0 5 3 113 182 329 312 361 255 325 281 318 187 17 2 0 147 63
0 0 0 0 0 0 0 0 0 0 0 0 14 0 0 38 194 237 118 88 6 0 0 9 0 0 0 25 218 327 357 392 421 495 536 269 210 0 0 0 20 166 99
0 0 0 0 0 0 0 0 0 0 0 0 0 13 13 31 166 282 274 112 34 5 0 0 0 0 0 61 154 302 337 464 473 544 259 197 0 0 0 0 0 0 0
0 0 0 0 0 0 0 0 0 0 0 0 0 0 25 10 56 226 227 133 32 1 0 0 0 0 0 82 183 205 219 227 174 124 3 0 0 0 0 0 0 0 0
1 3 0 0 0 0 3 4 0 0 0 0 0 0 26 33 4 11 76 17 11 13 10 83 249 541 460 375 365 276 208 64 0 0 0 0 0 0 0 0 0 0 0
1 0 1 0 2 3 0 0 0 4 0 0 0 0 0 0 0 0 0 0 0 0 1 416 409 377 308 159 128 24 0 0 0 0 0 0 0 0 0 0 0 0 2
1 1 1 0 1 1 1 1 1 0 0 0 0 1 0 0 0 0 0 0 0 0 5 160 295 198 31 0 0 0 0 0 0 0 0 0 0 0 0 0 0 0 0
2 2 1 1 1 1 0 0 0 0 0 0 0 0 1 0 2 0 0 0 0 0 1 4 14 0 0 0 0 0 0 0 0 0 0 0 0 0 0 0 0 0 0
2 2 1 0 1 1 1 0 0 0 2 0 0 0 0 0 5 0 0 0 0 0 0 0 0 0 16 4 0 0 0 0 0 0 0 0 0 0 0 0 0 0 38
1 1 1 1 1 1 1 1 0 4 1 8 0 0 9 4 2 0 0 0 0 7 3 6 10 0 0 0 0 0 0 0 0 0 0 0 0 0 0 0 33 134 82
1 1 1 0 1 1 1 1 1 3 2 2 3 0 0 28 37 0 0 0 0 8 8 23 0 0 0 0 0 0 0 0 0 0 0 0 0 0 0 216 328 165 48
2 1 1 1 1 4 6 5 1 0 2 2 6 0 0 36 15 0 0 0 0 1 10 0 0 0 0 0 0 0 0 0 0 0 0 0 0 0 18 232 155 74 5
3 3 3 2 0 0 2 13 3 2 2 2 12 11 0 20 2 0 0 0 0 0 0 0 0 0 0 0 0 0 0 0 0 0 0 0 0 6 17 188 127 0 0
5 3 3 1 0 2 1 8 4 3 1 2 16 10 0 0 1 0 0 0 0 0 0 0 0 0 0 0 0 0 0 0 0 0 0 0 0 0 13 210 86 12 2
2 4 4 1 0 0 1 1 2 1 0 0 0 0 0 0 0 0 0 0 0 0 0 0 0 0 0 0 0 0 0 0 0 0 0 0 0 0 43 240 68 22 0
3 4 4 0 0 0 0 0 1 2 0 0 1 0 0 0 0 0 0 0 0 0 0 0 0 0 0 0 0 0 0 0 0 0 0 0 0 0 62 258 45 15 32
4 2 2 0 0 0 0 0 1 1 1 0 0 0 0 0 0 0 0 0 0 0 0 0 0 0 0 0 0 0 0 0 0 0 0 0 0 0 0 131 56 54 47
2 2 3 3 0 0 0 0 0 0 1 0 0 0 0 0 0 0 0 0 0 0 0 0 0 0 0 0 0 0 0 0 0 0 0 3 5 2 0 6 52 80 54
3 2 3 3 0 0 0 0 0 0 0 2 0 0 0 0 0 0 0 0 0 0 0 0 0 0 0 0 0 0 0 0 0 0 0 0 17 0 0 13 44 38 59
5 4 4 4 3 2 0 0 0 0 4 3 0 0 0 0 0 0 0 0 0 0 0 0 0 0 0 0 0 0 0 0 0 0 0 0 0 0 18 37 42 0 4
5 5 6 5 5 4 3 0 0 0 1 2 0 0 0 0 0 0 0 0 0 0 0 0 0 0 0 0 0 0 0 0 0 0 0 0 0 19 71 51 9 15 0
4 5 6 6 6 6 4 1 0 0 1 2 0 0 0 0 0 0 0 0 0 0 0 0 0 0 0 0 0 0 0 0 0 0 0 10 17 82 60 25 2 10 3
4 4 5 6 7 7 7 6 1 0 0 0 0 0 0 0 0 0 0 0 0 0 0 0 0 0 0 0 0 0 0 0 0 104 144 27 85 70 47 17 0 11 0
2 4 5 5 6 7 8 7 6 3 0 0 0 0 0 0 0 0 0 0 0 0 0 0 0 0 0 0 0 0 0 0 0 46 49 59 121 103 17 2 0 0 0
2 3 3 4 5 5 7 8 8 7 4 1 0 0 0 0 0 0 0 0 0 0 0 0 0 0 0 0 0 0 0 0 0 0 9 50 68 65 1 3 15 0 0

GFSGL_con_mlcape_102.txt.gz
CAPE
0 0 0 0 0 0 0 0 0 0 0 0 0 0 0 0 0 0 0 0 0 0 0 0 0 148 160 105 120 91 63 10 0 0 0 0 0 0 72 69 155 189 147
0 0 0 0 0 0 0 0 0 0 0 0 0 0 1 0 0 0 0 0 0 0 0 0 0 27 151 172 146 102 91 4 2 0 0 0 0 0 29 94 54 51 87
0 0 0 0 0 0 0 0 0 0 0 0 0 0 0 0 0 0 0 0 0 18 28 11 0 0 2 75 157 103 59 5 1 0 0 0 0 21 14 14 29 70 29
0 0 0 0 0 0 0 0 0 0 0 0 0 0 0 0 0 0 0 0 0 3 76 43 0 0 7 31 53 82 86 36 3 2 1 1 3 15 25 41 17 2 13
0 0 0 0 0 0 0 0 0 0 0 0 0 0 0 0 7 6 2 0 0 23 82 58 34 0 21 66 66 62 56 46 20 30 12 47 13 8 31 7 14 0 4
1 0 0 0 0 0 0 0 0 0 0 0 0 0 0 0 0 0 0 0 0 8 64 66 52 21 6 3 0 13 38 102 88 6 19 3 0 1 0 0 0 0 0
0 0 0 0 0 0 0 0 0 0 0 0 0 0 0 0 0 0 0 0 0 3 30 53 58 15 11 21 12 11 30 143 82 5 10 1 0 0 0 0 0 0 0
0 0 0 0 0 0 0 0 0 0 0 0 0 0 0 0 0 0 0 0 1 20 38 45 5 3 4 1 2 9 100 8 5 2 0 0 0 0 0 0 0 0 0
2 1 1 0 0 0 0 0 0 0 0 0 0 0 1 0 0 0 0 0 0 9 58 44 92 13 1 0 0 10 0 0 0 0 0 0 0 0 0 0 0 0 0
1 1 1 0 1 1 1 1 0 0 1 9 24 22 7 1 0 0 0 0 1 0 43 40 22 0 0 0 0 0 3 0 0 0 0 0 0 0 0 0 0 0 0
1 1 1 1 2 2 1 1 1 5 20 6 9 12 3 0 0 0 0 0 0 0 34 41 1 0 7 4 0 0 22 6 8 3 0 0 0 0 0 0 0 0 0
1 1 1 0 1 2 2 2 2 2 4 5 6 3 0 3 0 0 0 0 0 1 38 35 13 15 13 0 0 1 37 22 4 0 0 0 0 0 0 0 0 0 0
2 0 0 0 2 3 4 3 1 1 7 13 5 4 3 1 1 0 0 0 0 0 29 7 0 0 0 0 0 0 10 2 0 0 0 0 0 0 0 0 0 2 1
3 2 2 2 3 3 3 3 1 1 4 5 7 3 2 2 0 3 0 0 0 0 12 0 0 0 0 0 0 0 0 0 0 0 0 0 0 0 0 36 27 0 0
4 4 2 3 5 3 3 3 1 0 0 1 2 1 0 1 1 0 1 0 1 3 0 0 0 0 0 0 0 0 0 0 0 0 0 0 0 0 28 56 36 12 18
4 4 3 3 4 5 4 1 0 0 0 0 0 0 0 0 0 0 0 0 0 0 0 0 0 0 0 0 0 0 0 0 0 0 0 0 0 0 136 94 47 53 17
4 4 3 3 5 5 3 2 0 0 0 0 0 0 0 0 0 0 0 0 0 0 2 0 0 0 0 0 0 0 0 0 0 0 0 0 0 0 245 252 147 81 0
2 2 3 5 5 4 3 3 0 0 0 0 0 0 0 0 0 0 0 0 0 0 0 0 0 0 0 0 0 0 0 0 0 0 0 0 0 0 20 225 104 77 0
3 3 3 4 4 4 5 3 2 0 0 0 0 0 0 0 0 0 0 0 0 0 0 0 0 0 0 0 0 0 0 0 0 0 0 0 0 9 3 44 135 18 0
2 2 2 4 4 6 6 5 1 0 0 0 0 0 0 0 0 1 0 0 0 0 0 0 0 0 0 0 0 0 0 0 0 0 0 0 10 28 37 37 52 41 0
2 2 2 3 5 6 7 5 2 15 8 7 1 0 0 0 0 0 0 0 0 0 0 0 0 0 0 0 0 0 0 0 0 0 0 0 2 26 44 46 71 46 19
2 2 3 4 5 7 6 7 4 3 5 0 0 0 0 0 0 0 0 0 0 0 0 0 0 0 0 0 0 0 0 0 0 0 0 6 32 54 138 176 42 0 0
2 3 4 4 4 5 5 8 7 5 3 1 0 0 0 0 0 0 0 0 0 0 0 0 0 0 0 0 0 0 0 0 0 0 0 30 34 98 174 103 4 0 2
2 2 4 4 4 5 6 9 8 4 3 0 0 0 0 0 0 0 0 0 0 0 0 0 0 0 0 0 0 0 0 0 0 0 7 72 13 16 79 51 7 2 3
4 3 3 4 4 5 6 6 8 8 8 4 0 0 0 0 0 0 0 0 0 0 0 0 0 0 0 0 0 0 0 0 0 0 0 0 11 37 55 41 8 0 0
3 4 3 3 3 3 4 5 6 7 9 9 8 5 1 0 0 0 0 0 0 0 0 0 0 0 0 0 0 0 0 0 0 0 0 0 0 30 55 28 1 0 0

GFSGL_con_mlcape_105.txt.gz
CAPE
0 0 0 0 0 0 0 0 0 0 0 0 0 0 0 0 0 0 1 0 0 0 8 47 68 87 69 70 86 140 84 86 89 32 31 6 0 0 0 0 115 187 227
0 0 0 0 0 0 0 0 0 0 0 0 0 0 0 0 0 0 0 0 0 0 1 13 46 60 86 108 103 84 64 0 36 22 68 112 17 9 0 0 27 198 240
0 0 0 0 0 0 0 0 0 0 0 0 0 0 0 0 0 0 2 1 0 1 11 9 22 69 86 90 68 76 77 81 48 37 5 65 68 5 0 0 41 195 342
0 0 0 0 0 0 0 0 0 0 0 0 0 0 1 0 0 0 0 4 6 11 6 12 13 35 75 101 73 30 0 15 60 45 10 12 42 31 18 14 44 374 360
0 0 0 0 0 0 0 1 0 0 0 0 0 0 0 2 1 0 0 1 3 3 0 2 21 33 76 86 83 23 0 10 17 14 5 5 21 42 52 52 35 143 327
0 0 0 0 0 0 1 1 0 0 0 0 0 4 9 5 2 0 0 1 4 9 15 4 0 9 56 58 45 33 1 20 53 24 24 15 25 89 99 78 103 141 96
0 0 0 0 1 1 1 0 0 0 2 0 2 5 2 0 1 0 0 2 12 3 2 18 3 23 88 228 109 34 0 0 0 83 57 41 43 86 146 81 58 84 101
0 0 0 0 1 0 0 0 0 1 2 2 3 2 7 10 6 0 0 3 13 7 2 3 9 34 169 126 80 32 8 0 0 10 4 6 25 8 9 7 17 40 9
1 1 0 1 1 0 0 0 1 3 1 4 8 7 10 12 23 0 0 5 17 3 6 0 0 90 98 7 6 3 4 102 2 3 0 0 0 0 0 3 7 0 2
1 1 1 1 1 1 1 2 1 1 0 2 11 13 1 1 6 2 0 15 8 0 0 0 1 38 2 0 0 0 13 8 3 0 0 0 0 0 0 0 5 0 0
1 1 1 1 1 1 1 0 2 2 2 2 8 13 14 2 5 2 0 3 0 3 0 0 68 5 0 0 0 1 2 1 0 0 3 4 4 4 1 25 19 0 0
2 2 2 1 1 2 3 4 4 3 3 1 4 7 18 6 2 0 0 0 0 1 0 1 10 0 0 0 1 0 0 0 13 9 0 3 17 3 0 0 0 0 0
2 3 2 1 1 1 5 3 2 3 3 1 4 8 5 1 0 0 0 0 0 0 0 1 0 1 29 6 0 5 7 79 96 37 0 0 0 0 0 0 0 0 9
3 4 3 4 2 3 3 3 3 4 2 2 3 2 1 0 0 1 2 2 0 0 0 4 0 1 8 0 5 59 44 127 95 27 3 0 0 0 4 6 0 1 0
3 3 4 4 4 4 4 4 3 2 3 1 2 4 2 1 1 0 0 1 1 0 6 20 3 33 74 5 13 0 0 0 0 0 0 3 31 56 115 29 21 20 28
3 4 4 4 4 4 5 4 1 0 0 0 0 0 0 0 0 0 0 0 0 0 5 10 35 93 18 0 0 0 0 0 1 3 15 5 2 80 126 54 36 24 14
3 3 3 3 4 5 4 5 4 0 0 0 0 0 0 0 0 0 0 0 0 0 2 31 97 27 0 0 12 0 0 0 0 0 0 0 27 323 145 77 40 28 4
2 2 2 3 3 4 5 5 4 2 2 11 4 0 0 0 0 0 0 0 0 7 20 91 60 0 0 4 4 0 0 0 25 0 1 77 82 335 388 235 95 158 0
2 2 2 3 2 3 5 6 5 2 10 2 11 0 0 0 0 0 0 1 2 38 79 95 45 0 0 0 0 0 0 0 0 83 127 188 216 174 406 536 304 302 1
1 1 2 3 3 6 6 6 4 2 2 8 2 0 0 0 0 1 1 1 34 45 44 58 27 0 0 0 0 0 0 0 0 1 187 296 368 310 249 428 287 109 105
2 2 2 3 3 4 6 6 6 4 3 4 1 0 0 1 0 1 0 10 0 0 3 15 4 2 15 4 0 0 0 0 0 0 2 230 377 366 436 449 541 248 195
1 2 3 4 3 5 8 7 8 5 3 2 0 0 0 2 0 0 0 0 5 3 1 0 0 1 1 0 1 40 91 10 18 245 337 385 446 543 644 612 313 60 0
0 1 3 2 3 4 7 6 6 8 7 6 4 3 1 3 0 0 0 0 2 12 0 0 2 8 0 0 1 23 76 193 164 63 383 550 448 531 362 153 29 0 1
0 0 2 2 3 4 6 8 7 6 7 8 8 5 4 3 1 0 0 0 0 0 0 2 1 0 0 0 0 0 2 1 0 1 113 454 364 177 206 114 3 1 0
0 1 2 2 2 3 5 6 6 7 7 7 10 9 5 6 4 1 0 0 0 0 0 1 1 0 0 0 0 0 0 0 0 0 0 0 106 126 81 26 3 2 1
0 0 1 2 2 2 2 5 6 6 6 6 6 9 9 5 4 5 2 0 0 0 0 0 0 0 0 0 0 0 0 0 0 0 0 0 0 188 65 11 1 1 4

GFSGL_con_mlcape_108.txt.gz
CAPE
0 0 0 0 0 0 0 0 0 0 0 0 0 0 0 0 0 0 2 3 4 6 9 10 15 29 12 19 36 44 24 30 23 16 1 21 201 146 248 121 132 166 92
0 0 0 0 0 0 0 0 0 0 0 0 0 0 0 0 0 0 0 0 1 4 7 6 8 16 33 18 12 24 30 31 25 24 7 10 11 83 279 237 176 116 70
0 0 0 0 0 0 0 0 0 0 0 0 0 0 0 0 0 1 2 0 0 1 3 4 6 12 26 14 21 18 19 37 27 15 12 4 24 52 108 246 142 159 231
0 0 0 0 0 0 0 1 1 0 0 1 0 0 0 0 2 2 4 4 3 3 6 5 6 11 12 16 19 21 33 30 30 27 26 8 27 62 73 37 51 130 215
0 0 0 0 0 0 0 1 0 0 1 0 0 1 4 4 6 5 5 6 8 8 6 7 6 2 0 0 5 20 49 44 32 42 29 12 19 59 59 32 103 232 253
0 0 0 0 0 0 1 0 0 0 0 2 4 4 4 0 0 0 0 7 4 12 13 5 10 10 15 0 0 0 8 51 18 23 10 20 13 18 6 72 71 196 60
0 0 0 0 0 0 0 0 0 0 1 4 1 0 0 8 11 3 2 14 26 17 24 14 26 9 2 8 16 2 10 1 0 12 6 41 93 30 50 27 79 121 81
0 0 0 0 0 0 0 0 0 2 4 2 0 2 11 6 3 1 2 13 10 21 14 1 18 10 11 5 45 29 27 50 82 60 33 49 160 233 209 114 167 256 556
0 0 1 0 0 1 0 1 1 4 1 3 6 6 1 0 6 0 0 1 12 6 3 7 14 8 8 0 23 28 11 26 84 33 227 241 49 148 211 205 75 232 235
1 1 0 0 1 1 2 1 3 0 3 1 1 0 0 15 15 6 4 14 4 5 14 13 0 2 0 0 1 20 0 131 196 49 37 51 29 9 1 113 123 88 55
3 2 1 1 2 1 1 4 1 4 2 3 3 1 8 17 5 0 0 0 2 2 4 2 1 2 0 0 0 1 59 153 89 78 111 3 0 1 1 16 62 37 34
3 2 1 2 2 1 2 1 3 3 4 3 2 3 10 2 0 0 0 0 0 3 4 4 5 0 0 0 0 0 0 1 2 2 4 3 3 5 25 13 21 38 21
3 3 2 2 3 2 3 1 1 3 3 3 2 13 5 5 0 0 0 0 0 1 1 0 0 0 0 8 0 11 7 7 4 1 7 5 0 4 16 24 64 77 92
4 3 3 2 1 2 4 4 1 2 3 4 6 14 3 3 0 0 1 2 3 0 0 0 0 5 15 4 3 29 48 8 0 0 8 70 74 52 61 80 91 148 180
2 3 3 3 3 3 3 3 3 3 2 3 6 8 2 0 0 0 0 1 0 1 0 17 80 117 171 183 87 64 77 83 95 108 12 19 59 90 158 93 93 102 44
3 3 2 3 3 3 4 5 0 0 0 0 0 0 0 0 0 0 0 0 0 0 15 99 139 120 89 121 144 122 90 67 68 86 96 77 54 73 92 110 112 106 32
2 2 2 2 4 5 4 5 4 1 0 0 0 0 0 0 0 0 0 0 0 0 76 95 165 83 156 196 142 150 152 125 144 160 130 108 110 182 191 174 142 171 47
3 1 2 2 3 4 5 4 5 5 3 3 8 0 0 0 0 0 0 0 4 2 74 113 69 145 167 86 40 95 173 135 178 243 205 167 277 251 135 97 113 164 55
1 1 2 2 3 4 4 4 4 4 4 1 10 2 0 0 0 0 0 0 23 45 48 88 28 35 94 12 0 0 78 240 269 273 216 172 362 384 413 226 199 123 15
0 1 2 2 4 6 5 5 5 4 2 20 3 1 1 0 1 1 5 0 3 24 99 105 31 46 67 55 25 2 0 4 146 206 264 236 150 110 360 397 328 74 86
0 1 2 1 4 5 5 7 7 7 5 2 3 1 0 0 0 0 0 9 17 68 118 92 38 62 59 24 25 4 0 0 0 64 229 307 245 168 146 318 461 282 193
0 0 2 1 3 5 5 6 7 8 6 4 4 0 0 2 1 1 18 30 31 37 60 32 45 56 33 44 115 112 7 23 164 196 242 213 272 379 462 378 373 91 10
0 0 0 2 3 4 5 5 5 7 7 6 3 3 1 3 5 2 1 62 97 50 15 27 42 31 22 36 81 148 144 150 162 205 279 233 141 329 293 228 187 79 17
0 0 1 1 2 1 4 4 2 3 4 6 6 5 3 4 3 1 0 0 7 12 22 53 47 67 28 0 0 0 3 0 0 0 30 248 302 314 192 173 226 108 10
0 0 0 1 1 0 0 2 3 3 3 5 5 5 3 4 2 1 0 1 0 0 0 2 26 26 52 22 0 0 0 0 0 0 0 0 35 315 316 24 0 0 0
0 0 0 1 1 3 2 1 2 2 4 4 4 2 3 2 2 1 0 1 0 0 0 0 0 0 10 10 0 0 0 0 0 0 0 0 0 99 134 0 0 0 3

GFSGL_con_mlcape_111.txt.gz
CAPE
0 0 0 0 0 0 0 0 0 0 0 0 0 0 0 0 1 3 6 6 5 6 8 8 5 10 10 11 13 14 34 41 21 44 23 39 49 53 153 409 453 467 132
0 0 0 0 0 0 0 0 0 0 0 0 0 1 1 2 6 9 5 9 7 7 7 8 8 5 10 10 12 25 13 4 15 40 48 40 49 26 4 32 196 325 297
0 0 0 0 0 0 0 0 0 0 0 1 0 2 3 6 7 6 8 12 14 15 13 15 14 11 12 9 8 9 19 20 17 24 12 40 16 16 38 47 96 133 315
0 0 0 0 0 0 0 0 0 2 3 2 0 0 1 2 5 7 10 5 5 6 9 12 8 13 8 11 12 1 15 21 16 9 15 23 21 24 25 21 26 97 123
0 0 0 0 0 0 0 0 0 1 0 0 0 0 2 2 2 6 1 1 3 7 8 11 13 15 10 14 6 6 4 1 13 14 16 17 18 17 23 19 28 48 159
0 0 0 0 0 0 0 1 1 0 2 1 7 2 1 0 5 0 0 7 13 15 14 12 15 20 20 12 4 0 0 6 0 6 25 35 2 21 1 0 7 35 91
0 0 0 0 0 0 1 0 1 1 2 5 2 2 4 8 0 0 0 0 9 20 28 31 23 25 16 13 9 11 2 0 0 0 1 6 15 2 0 1 51 104 101
0 0 0 0 0 0 0 2 2 3 4 2 1 4 5 0 1 0 0 3 9 24 13 33 25 17 12 11 29 22 19 6 13 0 0 0 5 17 12 22 123 104 237
0 0 0 0 0 1 2 1 3 3 0 2 3 1 3 3 9 1 0 3 8 5 24 45 20 11 4 2 12 10 0 0 4 22 55 89 36 26 36 154 160 154 123
0 0 0 1 1 2 0 1 4 0 0 1 2 2 2 7 3 0 0 5 1 0 0 1 0 2 0 0 1 0 0 7 1 145 143 25 0 0 0 135 138 126 166
0 0 1 2 3 1 0 1 1 1 0 1 2 1 2 6 2 1 0 0 0 2 2 2 1 3 0 0 0 0 1 0 0 22 170 240 236 222 292 192 268 288 273
1 2 3 2 2 0 2 2 1 1 2 4 2 2 2 0 2 0 0 0 0 1 2 2 1 0 0 0 0 0 1 0 1 2 7 131 66 105 271 377 335 267 380
1 4 2 2 3 0 3 0 0 1 4 2 2 1 6 8 3 0 0 0 0 1 3 0 0 0 0 0 0 0 0 1 1 17 56 36 15 44 134 180 285 286 179
2 2 1 2 2 1 3 3 2 3 2 2 3 3 13 4 0 0 0 1 0 0 0 0 0 0 2 14 25 22 7 0 1 1 2 1 10 2 55 162 204 88 23
1 1 3 2 2 2 2 2 1 1 1 2 4 3 11 1 0 0 0 1 1 0 0 0 29 36 32 24 28 41 21 8 0 0 0 1 0 5 4 22 38 32 51
1 2 2 3 3 3 2 2 0 0 0 0 0 0 0 0 0 0 0 0 0 0 0 102 89 95 81 78 96 149 145 41 53 3 1 0 0 8 8 2 1 26 11
1 2 1 2 2 3 4 4 4 0 0 0 0 0 0 0 0 0 0 0 0 0 99 125 154 139 192 167 209 170 87 17 31 54 10 0 31 46 49 78 126 139 34
0 1 1 1 2 3 4 3 3 5 2 3 0 0 0 0 0 0 0 0 62 27 110 101 257 202 96 86 242 269 151 169 132 144 133 105 176 173 133 122 98 66 21
0 2 2 1 2 3 2 3 4 4 4 3 2 0 0 0 0 0 0 10 62 118 71 114 201 159 119 56 24 174 263 175 242 230 179 172 175 193 181 145 186 168 45
0 0 1 1 3 3 3 5 5 5 4 3 2 4 2 0 2 1 31 43 35 80 155 209 206 199 119 93 29 12 14 153 205 220 204 283 291 337 304 314 248 119 48
1 0 0 1 4 3 3 4 4 4 4 5 4 1 2 4 3 2 129 33 0 5 76 128 129 127 188 196 41 1 24 137 274 181 249 270 275 193 501 423 322 265 140
0 0 1 1 2 3 2 3 5 5 4 5 4 1 4 4 5 2 1 12 2 34 54 166 113 108 74 62 218 205 175 191 267 167 198 235 312 421 295 314 247 185 0
0 0 0 1 1 0 2 1 2 4 5 4 3 4 5 7 5 5 0 0 2 64 212 170 124 84 67 79 74 40 2 26 58 122 216 333 263 388 398 271 191 62 11
0 0 0 0 0 1 1 1 1 1 2 4 3 5 4 3 4 5 0 0 0 1 5 68 120 161 132 13 0 0 0 0 0 0 0 27 155 219 213 181 139 66 1
0 0 0 0 0 1 1 1 1 1 1 2 3 3 2 2 2 4 0 0 0 0 0 0 7 35 0 0 0 0 0 0 0 0 0 0 144 165 60 3 0 0 1
0 0 0 0 0 3 1 2 1 0 1 1 1 2 1 3 3 1 1 0 0 0 0 0 0 0 0 0 0 0 0 0 0 0 0 1 68 216 16 0 0 0 0

GFSGL_con_mlcape_114.txt.gz
CAPE
0 0 0 0 0 0 0 0 0 0 0 0 0 0 0 0 0 0 2 1 2 8 10 15 12 10 7 1 0 0 1 2 18 16 17 29 10 7 53 101 24 36 106
0 0 0 0 0 0 0 0 0 0 0 0 0 0 0 0 0 0 0 4 5 8 8 10 11 16 15 10 5 0 0 2 19 20 21 0 0 0 33 71 4 0 13
0 0 0 0 0 0 0 0 0 0 0 0 0 0 0 0 0 0 1 8 10 8 2 0 0 0 1 2 11 10 3 2 0 5 18 9 29 12 13 14 1 58 46
0 0 0 0 0 0 0 0 0 0 0 0 0 0 1 3 4 5 2 1 0 0 0 0 0 0 1 16 13 11 14 8 9 5 3 10 27 6 25 21 1 3 16
0 0 0 0 0 0 0 0 0 0 0 0 0 1 2 2 0 0 0 0 0 0 0 3 8 11 19 24 30 16 11 10 5 1 1 9 0 16 19 3 23 5 14
0 0 0 0 0 0 0 0 0 0 2 2 1 3 3 0 0 0 0 0 0 0 0 2 4 12 7 12 23 26 27 24 14 16 14 5 2 0 2 34 9 24 0
0 0 0 0 0 0 0 0 0 0 0 1 1 5 1 3 4 2 0 0 0 0 0 0 0 10 9 9 25 31 34 35 19 8 10 8 0 0 0 17 41 6 0
0 0 0 0 0 0 0 0 0 0 0 1 3 2 3 3 3 0 0 0 0 0 3 9 9 3 7 13 17 29 17 19 30 60 45 13 0 0 0 3 4 3 8
0 0 0 0 0 0 0 0 0 0 0 1 1 0 0 3 0 0 0 3 0 0 5 0 0 0 0 0 5 16 11 1 2 6 2 0 0 0 0 2 21 5 0
0 0 0 0 1 0 0 0 0 0 0 1 1 0 1 1 0 2 0 0 0 0 0 0 0 0 0 0 0 0 2 0 1 0 0 0 0 0 0 9 41 7 9
1 0 0 0 0 0 0 0 0 2 1 1 0 0 2 0 0 0 0 0 0 0 0 0 0 0 0 0 0 0 1 0 1 2 2 1 3 94 21 0 0 0 28
1 0 0 0 0 0 1 0 0 1 1 1 1 0 0 0 0 3 0 0 0 0 1 1 2 1 0 0 0 0 1 1 3 4 4 3 5 5 107 127 25 15 126
1 1 0 0 0 0 0 0 1 1 0 1 1 2 1 0 0 0 0 0 0 0 0 0 2 0 0 0 0 0 0 1 0 1 2 1 1 1 117 207 279 349 292
1 1 0 0 0 0 0 1 1 2 2 2 2 2 0 0 0 0 1 0 0 0 0 0 0 0 0 0 0 1 12 0 1 1 1 6 50 57 136 194 224 286 271
1 1 0 0 0 1 1 2 1 1 1 1 2 2 2 0 0 0 0 0 0 0 0 0 0 16 36 40 4 13 6 12 0 0 1 2 0 0 12 122 236 312 165
1 1 1 1 1 1 3 3 1 0 0 0 0 0 0 0 0 0 0 0 0 0 0 1 0 2 35 52 59 14 9 21 0 0 0 0 0 1 113 241 292 42 1
1 2 1 0 2 3 2 3 4 1 0 0 0 0 0 0 0 0 0 0 0 0 8 48 77 79 6 8 6 39 24 4 20 0 1 11 34 3 3 26 1 2 3
1 2 1 1 2 2 3 4 3 4 4 1 0 0 0 0 0 0 0 0 3 5 33 145 249 189 96 68 3 47 116 125 131 43 63 32 21 24 7 0 21 4 0
1 1 1 1 2 2 3 4 3 4 4 3 2 0 0 0 1 0 0 2 0 8 9 112 184 223 184 114 28 27 44 108 115 163 64 66 56 103 158 147 20 6 18
0 0 0 0 2 2 3 4 5 5 5 5 4 4 4 3 2 4 2 19 5 1 2 15 60 181 201 214 95 43 31 35 108 105 138 140 186 235 206 66 30 32 15
0 0 0 1 1 1 2 3 4 5 5 4 3 1 2 4 9 8 5 2 0 0 0 27 32 23 4 50 30 2 88 90 116 102 177 178 230 234 227 164 119 0 0
0 0 0 0 0 1 1 1 2 4 4 5 4 3 3 4 7 6 5 0 0 0 3 1 36 2 13 0 0 0 0 0 3 97 144 169 215 217 234 147 21 0 1
0 0 0 0 0 0 0 0 1 1 1 2 2 3 4 5 6 6 5 1 0 1 0 1 0 0 0 0 0 0 0 0 0 0 164 181 187 199 161 87 41 2 3
0 0 0 0 0 2 0 0 0 0 1 1 1 2 3 4 4 4 2 1 1 0 0 0 1 0 0 0 0 0 0 0 0 0 4 153 138 150 129 135 64 0 0
0 0 0 0 0 0 0 1 0 0 0 1 1 1 1 1 2 2 1 1 0 0 0 0 0 0 0 0 0 0 0 0 0 0 0 106 27 0 0 0 0 0 0
0 0 2 1 1 0 0 0 0 0 0 0 0 0 0 0 0 0 1 1 1 0 0 0 0 0 0 0 0 0 0 0 0 0 0 57 66 0 0 0 0 0 0

GFSGL_con_mlcape_117.txt.gz
CAPE
0 0 0 0 0 0 0 0 0 0 0 0 0 0 0 0 0 0 0 0 0 0 0 1 2 9 1 0 3 0 0 0 0 0 0 0 0 0 0 0 0 16 6
0 0 0 0 0 0 0 0 0 0 0 0 0 0 0 0 0 0 0 0 0 2 7 1 0 0 0 0 0 0 2 1 8 3 0 0 0 0 0 0 0 0 0
0 0 0 0 0 0 0 0 0 0 0 0 0 0 0 0 0 0 0 1 0 0 0 0 0 0 0 0 0 0 0 6 4 5 7 4 2 1 0 0 0 0 0
0 0 0 0 0 0 0 0 0 0 0 0 0 0 0 0 0 0 0 0 0 0 0 0 0 0 0 0 2 4 15 13 12 14 13 9 3 0 0 0 0 0 0
0 0 0 0 0 0 0 0 0 0 0 0 0 0 0 0 0 0 0 0 0 0 0 0 0 0 3 6 7 19 26 23 26 18 10 4 4 3 0 0 0 0 0
0 0 0 0 0 0 0 0 0 0 0 0 0 0 0 3 0 0 0 0 0 0 0 0 0 0 0 0 0 0 8 25 28 26 17 14 15 14 0 0 0 1 1
0 0 0 0 0 0 0 0 0 0 0 0 0 0 1 0 0 0 0 0 0 0 0 1 0 0 0 0 0 1 0 3 18 24 25 24 30 29 4 0 0 1 5
0 0 0 0 0 0 0 0 0 0 0 0 0 0 0 0 0 0 0 0 0 0 0 0 0 0 0 0 3 5 3 1 4 6 10 16 21 11 3 0 0 0 0
0 0 0 0 0 0 0 0 0 0 0 0 0 0 0 0 0 0 0 0 0 0 0 0 0 0 0 0 0 1 1 1 0 0 0 0 0 13 8 3 3 9 0
0 0 0 0 0 0 0 0 0 0 0 0 0 0 0 0 0 0 0 0 0 0 0 0 0 0 0 0 0 0 1 0 1 0 0 0 0 0 0 0 0 1 9
0 0 0 0 0 0 0 0 0 0 0 0 0 0 0 0 0 0 0 0 0 0 0 0 0 0 0 0 0 1 1 1 1 1 1 2 4 1 1 6 0 0 3
0 0 0 0 0 0 0 0 0 0 1 0 0 0 0 0 0 0 0 0 0 0 0 0 0 0 0 0 0 0 1 2 5 5 5 4 4 3 0 3 2 0 0
1 1 0 0 0 0 0 0 1 1 1 1 1 2 1 0 0 0 0 0 0 0 0 0 0 0 0 0 0 0 0 0 0 0 0 1 2 1 1 59 11 0 0
1 1 1 1 1 0 0 1 1 3 3 3 2 2 0 0 1 0 0 0 0 0 1 0 0 0 0 0 0 0 0 1 4 3 1 2 3 2 2 0 75 84 8
2 2 2 1 2 1 1 1 1 1 1 1 0 0 2 3 2 1 0 0 0 0 0 0 0 0 0 0 8 2 13 7 2 0 1 2 2 21 54 148 171 191 69
2 2 2 1 1 1 2 3 0 0 0 0 0 0 2 3 2 0 0 0 0 0 0 0 0 8 1 0 0 14 9 0 0 1 0 0 0 0 0 48 202 106 0
1 2 3 2 1 3 4 4 3 0 0 0 0 0 1 2 0 0 0 0 0 0 0 3 15 25 3 3 1 0 11 22 40 1 0 0 16 8 1 122 19 2 2
1 2 2 1 2 2 3 4 4 6 4 2 0 0 4 0 2 2 0 0 3 2 5 18 23 35 16 17 27 23 38 61 57 9 7 1 32 72 62 43 10 2 3
1 2 1 1 1 1 1 3 4 5 6 4 4 0 2 1 2 0 1 2 2 2 3 1 15 38 27 29 2 30 27 34 51 30 5 0 11 2 5 11 2 1 0
0 0 0 1 1 1 1 3 4 5 5 5 3 4 3 5 4 4 5 5 4 2 3 1 9 0 1 0 0 0 0 5 70 33 8 21 24 6 0 2 0 0 0
0 0 0 0 1 1 1 1 2 3 4 4 4 2 0 4 8 7 6 4 6 3 2 1 0 0 0 0 0 0 0 0 0 59 105 87 11 4 20 0 0 1 0
0 0 0 0 0 0 1 0 1 1 2 2 2 2 1 2 5 7 6 7 4 2 1 3 0 0 1 1 0 0 0 0 0 0 77 98 107 45 1 1 3 4 4
0 0 0 0 0 0 0 0 0 0 1 0 1 2 2 2 2 5 6 4 4 3 1 2 1 0 0 0 0 0 0 0 0 0 3 71 110 38 8 0 1 2 0
0 0 0 0 0 0 0 0 0 0 0 0 0 0 1 1 1 2 3 4 3 2 1 1 2 0 0 0 0 0 0 0 0 0 0 21 27 31 14 2 2 1 0
0 0 0 0 0 0 0 0 0 1 0 0 0 0 0 0 1 1 1 2 3 2 0 0 0 0 0 0 0 0 0 0 0 0 0 0 0 0 1 0 1 0 0
0 0 0 0 0 0 0 0 0 0 0 0 0 1 0 0 0 0 0 0 1 0 0 0 0 0 0 0 0 0 0 0 0 0 0 0 0 0 0 0 0 0 0

GFSGL_con_mlcape_123.txt.gz
CAPE
0 0 0 0 0 0 0 0 0 0 0 0 0 0 0 0 0 0 0 0 0 0 0 0 0 0 0 0 0 0 0 0 0 0 0 0 0 0 0 0 0 0 0
0 0 0 0 0 0 0 0 0 0 0 0 0 0 0 0 0 0 0 0 0 0 0 0 0 0 0 0 0 0 0 0 0 0 0 0 0 0 0 0 0 0 0
0 0 0 0 0 0 0 0 0 0 0 0 0 0 0 0 0 0 0 0 0 0 0 0 0 0 0 0 0 0 0 0 0 0 0 0 0 1 0 0 0 0 0
0 0 0 0 0 0 0 0 0 0 0 0 0 0 0 0 0 0 0 0 0 0 0 0 0 0 0 0 0 0 0 0 0 0 0 0 0 0 0 0 0 0 0
0 0 0 0 0 0 0 0 0 0 0 0 0 0 0 0 0 0 0 0 0 0 0 0 0 0 0 0 0 0 0 0 1 1 1 1 0 0 0 1 0 0 0
0 0 0 0 0 0 0 0 0 0 0 0 0 0 0 0 0 0 0 0 0 1 0 0 0 0 0 0 0 0 0 1 1 1 1 4 3 7 3 2 0 0 0
0 0 0 0 0 0 0 0 0 0 0 0 0 0 0 0 0 0 0 0 0 0 0 0 0 0 0 0 0 0 0 0 0 0 1 1 1 1 2 2 1 0 0
0 0 0 0 0 0 0 0 0 0 0 0 0 0 0 0 0 0 0 0 0 0 0 0 0 0 0 0 0 0 0 0 0 0 1 1 0 0 2 4 1 2 0
0 0 0 0 0 0 0 0 0 0 0 0 0 0 0 0 0 0 0 0 0 0 0 0 0 0 0 0 0 1 1 1 0 0 0 0 0 0 0 6 3 6 1
0 0 0 0 0 0 0 0 0 0 0 0 0 0 0 0 0 0 0 0 0 0 0 0 0 0 0 0 0 1 2 3 3 2 1 0 0 0 0 0 3 5 4
1 1 0 0 0 0 0 0 0 0 0 0 0 0 0 0 0 0 0 0 0 0 0 0 0 0 0 0 0 3 3 2 4 5 5 4 3 2 1 1 1 2 2
1 1 0 0 0 0 0 0 0 0 0 0 0 0 0 0 0 0 0 0 1 1 0 1 0 0 1 0 0 0 0 2 5 5 6 5 4 4 3 2 1 1 0
2 2 1 1 1 0 1 0 1 1 1 1 2 3 3 2 1 1 3 3 1 3 3 1 2 0 0 0 0 0 0 0 1 3 0 0 0 1 2 2 2 0 0
3 2 1 2 1 0 1 1 1 2 2 2 4 4 5 3 2 5 8 5 0 0 1 1 0 0 0 1 1 3 4 8 0 0 0 1 1 2 3 2 2 6 1
2 2 1 2 1 1 1 2 1 1 0 3 4 4 8 4 3 6 6 0 0 0 0 0 3 4 5 3 3 3 3 10 3 0 1 0 2 2 3 2 0 11 3
1 2 2 2 3 2 3 1 0 0 0 0 1 2 4 1 2 2 0 0 0 0 0 4 7 6 5 4 6 5 4 3 3 1 0 1 2 1 2 3 37 22 0
0 3 2 2 3 3 3 5 3 0 0 0 0 3 2 1 2 1 0 0 0 0 0 4 6 7 6 6 5 6 7 5 3 0 0 1 2 1 1 0 26 12 0
0 1 2 2 2 2 4 4 3 5 5 3 0 3 2 2 2 1 1 2 0 0 4 2 7 7 7 6 7 8 8 6 5 1 0 0 10 38 9 3 0 0 0
0 2 1 1 1 0 2 2 3 3 4 4 4 3 3 2 2 1 2 4 5 5 4 5 4 6 7 7 9 10 9 9 4 17 5 21 18 11 4 2 1 1 2
0 0 0 1 0 0 0 2 3 4 4 2 4 4 2 3 6 5 4 3 4 5 5 2 4 3 5 6 8 9 12 7 6 3 19 5 2 0 1 1 1 0 0
0 0 0 0 0 0 0 0 1 2 3 2 2 1 0 3 5 5 4 3 3 5 5 3 2 3 3 4 13 14 16 14 13 8 1 2 3 3 3 3 4 2 3
0 0 0 0 0 0 0 0 1 1 0 1 1 1 0 1 3 4 4 3 2 3 2 0 1 1 2 4 5 14 21 20 17 11 4 6 1 0 1 1 3 1 1
0 0 0 0 0 0 0 0 0 0 0 0 0 0 1 1 1 2 2 2 2 2 2 0 0 1 1 2 2 3 14 23 15 13 4 25 1 3 4 3 0 0 0
0 0 0 0 0 0 0 0 0 0 0 0 0 0 0 0 1 0 1 1 2 2 2 2 0 1 2 3 4 3 5 9 11 8 3 2 2 3 0 0 0 0 0
0 0 0 0 0 0 0 0 0 0 0 0 0 0 0 0 0 1 1 2 1 1 1 1 1 0 1 2 4 5 6 8 3 0 0 0 0 0 0 0 0 0 0
0 0 0 0 0 0 0 0 1 0 0 0 0 0 0 1 1 1 1 1 1 1 0 1 1 0 1 2 3 4 5 5 3 1 0 0 0 0 0 0 0 0 0